• In Russia
  • List of Countries
  • For 7 days
  • Water Temperature
  • Weather Map
  • Weather Widgets
  • user-avatar
    Login

    Hourly Weather Hrazdan

    Today, 5 December, Thursday

    Time Temperature Precipitation Wind Pressure Humidity
    00:00 -2°C° 0.1 mm 1 mps 610 mmHg 92%
    01:00 -2°C° 0.2 mm 1 mps 610 mmHg 92%
    02:00 -2°C° 0.2 mm 1 mps 611 mmHg 93%
    03:00 -2°C° 0 mm 1 mps 611 mmHg 95%
    04:00 -2°C° 0.4 mm 1 mps 611 mmHg 96%
    05:00 -2°C° 0.4 mm 1 mps 611 mmHg 96%
    06:00 -2°C° 0.4 mm 1 mps 611 mmHg 96%
    07:00 -1°C° 0.2 mm 1 mps 612 mmHg 95%
    08:00 -1°C° 0.2 mm 1 mps 612 mmHg 95%
    09:00 -1°C° 0 mm 1 mps 613 mmHg 95%
    10:00 -1°C° 0.2 mm 1 mps 613 mmHg 94%
    11:00 -2°C° 0.2 mm 2 mps 613 mmHg 93%
    12:00 -2°C° 0.2 mm 2 mps 614 mmHg 92%
    13:00 -2°C° 0.1 mm 2 mps 613 mmHg 92%
    14:00 -2°C° 0.1 mm 2 mps 613 mmHg 91%
    15:00 -3°C° 0 mm 2 mps 613 mmHg 91%
    16:00 -4°C° 0 mm 2 mps 613 mmHg 91%
    17:00 -5°C° 0 mm 2 mps 613 mmHg 91%
    18:00 -6°C° 0 mm 2 mps 613 mmHg 91%
    19:00 -7°C° 0 mm 2 mps 613 mmHg 91%
    20:00 -7°C° 0 mm 2 mps 613 mmHg 91%
    21:00 -8°C° 0 mm 2 mps 613 mmHg 91%
    22:00 -7°C° 0 mm 1 mps 613 mmHg 90%
    23:00 -7°C° 0 mm 1 mps 613 mmHg 90%

    Tomorrow, 6 December, Friday

    Time Temperature Precipitation Wind Pressure Humidity
    00:00 -7°C° 0 mm 1 mps 614 mmHg 90%
    01:00 -7°C° 0 mm 1 mps 614 mmHg 88%
    02:00 -7°C° 0 mm 1 mps 614 mmHg 87%
    03:00 -7°C° 0 mm 1 mps 614 mmHg 86%
    04:00 -7°C° 0 mm 1 mps 614 mmHg 86%
    05:00 -7°C° 0 mm 1 mps 614 mmHg 87%
    06:00 -7°C° 0 mm 1 mps 614 mmHg 87%
    07:00 -6°C° 0 mm 1 mps 614 mmHg 87%
    08:00 -4°C° 0 mm 1 mps 615 mmHg 86%
    09:00 -3°C° 0 mm 1 mps 615 mmHg 85%
    10:00 -2°C° 0 mm 1 mps 615 mmHg 85%
    11:00 -1°C° 0 mm 1 mps 615 mmHg 85%
    12:00 0°C° 0 mm 1 mps 615 mmHg 85%
    13:00 0°C° 0 mm 1 mps 615 mmHg 86%
    14:00 0°C° 0 mm 1 mps 615 mmHg 87%
    15:00 0°C° 0 mm 1 mps 614 mmHg 88%
    16:00 -1°C° 0 mm 1 mps 614 mmHg 89%
    17:00 -3°C° 0 mm 1 mps 614 mmHg 89%
    18:00 -4°C° 0 mm 1 mps 613 mmHg 89%
    19:00 -4°C° 0 mm 1 mps 613 mmHg 88%
    20:00 -4°C° 0 mm 1 mps 614 mmHg 88%
    21:00 -4°C° 0 mm 1 mps 614 mmHg 87%
    22:00 -4°C° 0 mm 1 mps 614 mmHg 87%
    23:00 -4°C° 0 mm 1 mps 613 mmHg 87%

    Day after tomorrow, 7 December, Saturday

    Time Temperature Precipitation Wind Pressure Humidity
    00:00 -4°C° 0 mm 1 mps 613 mmHg 87%
    01:00 -4°C° 0 mm 1 mps 613 mmHg 86%
    02:00 -4°C° 0 mm 1 mps 613 mmHg 85%
    03:00 -6°C° 0 mm 1 mps 613 mmHg 84%
    04:00 -6°C° 0 mm 1 mps 612 mmHg 83%
    05:00 -6°C° 0 mm 1 mps 612 mmHg 82%
    06:00 -6°C° 0 mm 1 mps 612 mmHg 81%
    07:00 -4°C° 0 mm 1 mps 612 mmHg 80%
    08:00 -4°C° 0 mm 0 mps 613 mmHg 79%
    09:00 -3°C° 0 mm 0 mps 613 mmHg 79%
    10:00 -2°C° 0 mm 0 mps 613 mmHg 79%
    11:00 -1°C° 0 mm 0 mps 613 mmHg 79%
    12:00 0°C° 0 mm 0 mps 613 mmHg 79%
    13:00 0°C° 0 mm 0 mps 612 mmHg 82%
    14:00 0°C° 0 mm 0 mps 612 mmHg 84%
    15:00 +1°C° 0 mm 1 mps 611 mmHg 86%
    16:00 -1°C° 0 mm 1 mps 611 mmHg 85%
    17:00 -2°C° 0 mm 1 mps 610 mmHg 84%
    18:00 -3°C° 0 mm 1 mps 610 mmHg 84%
    19:00 -3°C° 0 mm 1 mps 610 mmHg 83%
    20:00 -3°C° 0 mm 1 mps 610 mmHg 82%
    21:00 -3°C° 0 mm 1 mps 610 mmHg 81%
    22:00 -3°C° 0 mm 1 mps 610 mmHg 80%
    23:00 -3°C° 0 mm 1 mps 609 mmHg 80%

    8 December, Sunday

    Time Temperature Precipitation Wind Pressure Humidity
    00:00 -3°C° 0 mm 1 mps 609 mmHg 80%
    01:00 -3°C° 0 mm 1 mps 609 mmHg 78%
    02:00 -3°C° 0 mm 1 mps 609 mmHg 77%
    03:00 -4°C° 0 mm 0 mps 608 mmHg 76%
    04:00 -4°C° 0 mm 0 mps 608 mmHg 74%
    05:00 -4°C° 0 mm 0 mps 608 mmHg 73%
    06:00 -4°C° 0 mm 0 mps 607 mmHg 72%
    07:00 -4°C° 0 mm 0 mps 607 mmHg 72%
    08:00 -3°C° 0 mm 0 mps 608 mmHg 71%
    09:00 -2°C° 0 mm 0 mps 608 mmHg 71%
    10:00 0°C° 0 mm 1 mps 607 mmHg 73%
    11:00 +1°C° 0 mm 1 mps 607 mmHg 76%
    12:00 +1°C° 0 mm 1 mps 607 mmHg 78%
    13:00 +1°C° 0 mm 1 mps 606 mmHg 79%
    14:00 +1°C° 0 mm 1 mps 606 mmHg 80%
    15:00 +1°C° 0 mm 1 mps 606 mmHg 81%
    16:00 0°C° 0 mm 1 mps 605 mmHg 80%
    17:00 -1°C° 0 mm 1 mps 605 mmHg 79%
    18:00 -2°C° 0 mm 1 mps 605 mmHg 78%
    19:00 -2°C° 0 mm 1 mps 605 mmHg 77%
    20:00 -2°C° 0 mm 1 mps 605 mmHg 77%
    21:00 -2°C° 0 mm 1 mps 605 mmHg 76%
    22:00 -3°C° 0 mm 1 mps 605 mmHg 77%
    23:00 -5°C° 0 mm 2 mps 605 mmHg 78%

    9 December, Monday

    Time Temperature Precipitation Wind Pressure Humidity
    00:00 -5°C° 0 mm 2 mps 605 mmHg 79%
    01:00 -6°C° 0 mm 2 mps 605 mmHg 79%
    02:00 -6°C° 0 mm 2 mps 604 mmHg 80%
    03:00 -6°C° 0 mm 2 mps 604 mmHg 81%
    04:00 -6°C° 0 mm 2 mps 604 mmHg 82%
    05:00 -6°C° 0 mm 2 mps 605 mmHg 83%
    06:00 -6°C° 0 mm 2 mps 605 mmHg 83%
    07:00 -6°C° 0 mm 2 mps 605 mmHg 83%
    08:00 -5°C° 0 mm 2 mps 606 mmHg 83%
    09:00 -4°C° 0 mm 2 mps 606 mmHg 83%
    10:00 -3°C° 0 mm 2 mps 607 mmHg 83%
    11:00 -2°C° 0 mm 2 mps 607 mmHg 82%
    12:00 -2°C° 0 mm 2 mps 607 mmHg 82%
    13:00 -2°C° 0 mm 2 mps 606 mmHg 82%
    14:00 -2°C° 0 mm 2 mps 606 mmHg 82%
    15:00 -2°C° 0 mm 2 mps 606 mmHg 82%
    16:00 -3°C° 0 mm 2 mps 606 mmHg 82%
    17:00 -4°C° 0 mm 2 mps 606 mmHg 81%
    18:00 -6°C° 0 mm 2 mps 606 mmHg 81%
    19:00 -6°C° 0 mm 2 mps 606 mmHg 80%
    20:00 -6°C° 0 mm 2 mps 606 mmHg 80%
    21:00 -6°C° 0 mm 2 mps 607 mmHg 80%
    22:00 -7°C° 0 mm 2 mps 607 mmHg 80%
    23:00 -7°C° 0 mm 2 mps 607 mmHg 80%

    10 December, Tuesday

    Time Temperature Precipitation Wind Pressure Humidity
    00:00 -7°C° 0 mm 2 mps 606 mmHg 80%
    01:00 -7°C° 0 mm 2 mps 606 mmHg 80%
    02:00 -7°C° 0 mm 2 mps 606 mmHg 80%
    03:00 -8°C° 0 mm 2 mps 606 mmHg 81%
    04:00 -8°C° 0 mm 2 mps 606 mmHg 81%
    05:00 -8°C° 0 mm 2 mps 606 mmHg 81%
    06:00 -8°C° 0 mm 2 mps 606 mmHg 81%
    07:00 -7°C° 0 mm 2 mps 607 mmHg 81%
    08:00 -7°C° 0 mm 2 mps 607 mmHg 81%
    09:00 -6°C° 0 mm 2 mps 608 mmHg 81%
    10:00 -5°C° 0 mm 2 mps 608 mmHg 80%
    11:00 -4°C° 0 mm 2 mps 608 mmHg 80%
    12:00 -3°C° 0 mm 2 mps 608 mmHg 79%
    13:00 -3°C° 0 mm 2 mps 607 mmHg 80%
    14:00 -3°C° 0 mm 2 mps 607 mmHg 80%
    15:00 -1°C° 0 mm 1 mps 607 mmHg 81%
    16:00 -3°C° 0 mm 1 mps 606 mmHg 80%
    17:00 -6°C° 0 mm 2 mps 606 mmHg 79%
    18:00 -7°C° 0 mm 2 mps 606 mmHg 78%
    19:00 -7°C° 0 mm 2 mps 606 mmHg 78%
    20:00 -7°C° 0 mm 2 mps 606 mmHg 77%
    21:00 -7°C° 0 mm 2 mps 607 mmHg 76%
    22:00 -7°C° 0 mm 2 mps 607 mmHg 76%
    23:00 -8°C° 0 mm 2 mps 607 mmHg 76%
    Show more